Weather History for Stevens Point, WI

Change the Weather History Date:

Friday, July 12, 2013

  Actual Average Record
Temperature  
Mean Temperature 67 °F -  
Max Temperature 80 °F 81 °F 92 °F (1952)
Min Temperature 54 °F 59 °F 46 °F (1959)
Cooling Degree Days 2    
Growing Degree Days 17 (Base 50)    
Moisture  
Dew Point 54 °F    
Average Humidity 62    
Maximum Humidity 93    
Minimum Humidity 37    
Precipitation  
Precipitation 0.00 in - - ()
Sea Level Pressure  
Sea Level Pressure 30.12 in    
Wind  
Wind Speed 4 mph (South)    
Max Wind Speed 14 mph    
Max Gust Speed 23 mph    
Visibility 10 miles    
Events      
Averages and records for this station are not official NWS values.
T = Trace of Precipitation, MM = Missing Value Source: NWS Daily Summary

Daily Weather History Graph

Daily Weather History Graph

Search for Another Location

Airport:

Trip Planner

Search our weather history database for the weather conditions in past years. The results will help you decide how hot, cold, wet, or windy it might be!

Date:

Astronomy

Jul. 12, 2013 Rise Set
Actual Time 5:25 AM CDT 8:42 PM CDT
Civil Twilight 4:49 AM CDT 9:17 PM CDT
Nautical Twilight 4:02 AM CDT 10:04 PM CDT
Astronomical Twilight 3:04 AM CDT 11:01 PM CDT
Moon 9:54 AM CDT (7/12) 10:39 PM CDT (7/12)
Length of Visible Light 16h 28m
Length of Day
15h 17m
Waxing Crescent, 17% of the Moon is Illuminated
Jul 12
Waxing Crescent
Jul 15
First Quarter
Jul 22
Full
Jul 29
Last Quarter
Aug 6
New

Hourly Weather History & Observations

Time (CDT) Temp. Dew Point Humidity Pressure Visibility Wind Dir Wind Speed Gust Speed Precip Events Conditions
12:15 AM 60.8 °F 52.7 °F 75% 30.10 in - Calm Calm - N/A   Clear
12:35 AM 59.4 °F 52.9 °F 79% 30.11 in - Calm Calm - N/A   Clear
12:55 AM 59.9 °F 52.3 °F 76% 30.12 in - Calm Calm - N/A   Clear
1:15 AM 57.4 °F 51.8 °F 82% 30.12 in - Calm Calm - N/A   Clear
1:35 AM 57.2 °F 51.8 °F 82% 30.11 in - Calm Calm - N/A   Clear
1:55 AM 57.0 °F 51.8 °F 83% 30.11 in - Calm Calm - N/A   Clear
2:15 AM 56.8 °F 51.1 °F 81% 30.11 in - Calm Calm - N/A   Clear
2:35 AM 59.2 °F 52.5 °F 79% 30.11 in - Calm Calm - N/A   Clear
2:55 AM 57.9 °F 52.5 °F 82% 30.12 in - Calm Calm - N/A   Clear
3:15 AM 58.5 °F 52.9 °F 82% 30.11 in - Calm Calm - N/A   Clear
3:35 AM 59.4 °F 53.2 °F 80% 30.12 in - Calm Calm - N/A   Clear
3:55 AM 57.9 °F 52.7 °F 83% 30.12 in - Calm Calm - N/A   Clear
4:15 AM 55.4 °F 52.7 °F 91% 30.11 in - Calm Calm - N/A   Unknown
4:35 AM 58.3 °F 53.6 °F 84% 30.12 in - Calm Calm - N/A   Unknown
4:55 AM 55.4 °F 52.5 °F 90% 30.12 in - Calm Calm - N/A   Unknown
5:15 AM 54.9 °F 52.2 °F 91% 30.13 in - Calm Calm - N/A   Unknown
5:35 AM 54.1 °F 52.0 °F 92% 30.14 in 10.0 mi Calm Calm - N/A   Clear
5:55 AM 54.0 °F 52.0 °F 93% 30.14 in - Calm Calm - N/A   Unknown
6:15 AM 56.1 °F 53.1 °F 89% 30.15 in - Calm Calm - N/A   Unknown
6:35 AM 58.1 °F 55.2 °F 90% 30.15 in 10.0 mi Calm Calm - N/A   Clear
6:55 AM 61.3 °F 55.8 °F 82% 30.15 in 10.0 mi South 4.6 mph - N/A   Clear
7:15 AM 63.1 °F 56.7 °F 79% 30.16 in 10.0 mi South 3.5 mph - N/A   Clear
7:35 AM 65.5 °F 57.2 °F 75% 30.16 in 10.0 mi South 4.6 mph - N/A   Clear
7:55 AM 68.0 °F 57.9 °F 70% 30.16 in - SSW 4.6 mph - N/A   Clear
8:15 AM 66.4 °F 57.4 °F 73% 30.16 in - SW 4.6 mph - N/A   Clear
8:35 AM 66.7 °F 57.7 °F 73% 30.16 in 4.0 mi South 5.8 mph - N/A   Haze
8:55 AM 68.9 °F 58.1 °F 68% 30.16 in 10.0 mi SSW 5.8 mph - N/A   Clear
9:15 AM 70.7 °F 58.3 °F 65% 30.16 in 10.0 mi SSW 8.1 mph - N/A   Clear
9:35 AM 71.6 °F 58.1 °F 62% 30.16 in 10.0 mi WSW 6.9 mph - N/A   Clear
9:55 AM 72.3 °F 57.7 °F 60% 30.16 in 10.0 mi SW 8.1 mph - N/A   Clear
10:15 AM 73.4 °F 58.1 °F 59% 30.16 in 10.0 mi South 6.9 mph - N/A   Clear
10:35 AM 73.9 °F 56.8 °F 55% 30.15 in 10.0 mi South 8.1 mph - N/A   Clear
10:55 AM 74.7 °F 56.7 °F 53% 30.16 in 10.0 mi SSW 8.1 mph - N/A   Clear
11:15 AM 75.6 °F 56.1 °F 51% 30.15 in 10.0 mi SSW 9.2 mph 17.3 mph N/A   Clear
11:35 AM 76.1 °F 55.6 °F 49% 30.15 in 10.0 mi SSW 11.5 mph - N/A   Clear
11:55 AM 76.5 °F 55.9 °F 49% 30.14 in 10.0 mi South 13.8 mph 17.3 mph N/A   Clear
12:15 PM 77.0 °F 56.3 °F 49% 30.14 in 10.0 mi SSW 12.7 mph - N/A   Clear
12:35 PM 77.4 °F 55.0 °F 46% 30.14 in 10.0 mi South 9.2 mph 16.1 mph N/A   Clear
12:55 PM 77.4 °F 54.9 °F 46% 30.14 in 10.0 mi SSE 10.4 mph 18.4 mph N/A   Clear
1:15 PM 78.1 °F 52.9 °F 41% 30.13 in 10.0 mi SSE 12.7 mph - N/A   Clear
1:35 PM 78.6 °F 52.9 °F 41% 30.13 in 10.0 mi South 12.7 mph 16.1 mph N/A   Clear
1:55 PM 79.3 °F 53.8 °F 41% 30.13 in 10.0 mi South 10.4 mph 18.4 mph N/A   Clear
2:15 PM 78.8 °F 52.5 °F 40% 30.13 in 10.0 mi South 13.8 mph - N/A   Clear
2:35 PM 79.5 °F 52.2 °F 38% 30.13 in 10.0 mi SSW 11.5 mph 23.0 mph N/A   Clear
2:55 PM 79.2 °F 53.6 °F 41% 30.12 in 10.0 mi South 8.1 mph 17.3 mph N/A   Clear
3:15 PM 79.3 °F 54.1 °F 42% 30.11 in 10.0 mi South 13.8 mph 17.3 mph N/A   Clear
3:35 PM 79.5 °F 54.7 °F 42% 30.10 in 10.0 mi South 10.4 mph 17.3 mph N/A   Clear
3:55 PM 80.1 °F 52.7 °F 39% 30.11 in 10.0 mi South 11.5 mph 16.1 mph N/A   Clear
4:34 PM 80.6 °F 51.8 °F 37% 30.10 in 10.0 mi South 12.7 mph 18.4 mph N/A   Clear
4:55 PM 79.9 °F 52.2 °F 38% 30.10 in 10.0 mi South 8.1 mph - N/A   Clear
5:15 PM 79.3 °F 51.1 °F 37% 30.09 in 10.0 mi South 13.8 mph - N/A   Clear
5:35 PM 79.3 °F 52.3 °F 39% 30.10 in 10.0 mi South 8.1 mph - N/A   Clear
5:55 PM 78.8 °F 51.4 °F 38% 30.09 in 10.0 mi SSW 10.4 mph - N/A   Clear
6:15 PM 78.8 °F 52.2 °F 39% 30.08 in 10.0 mi South 11.5 mph 16.1 mph N/A   Clear
6:35 PM 78.3 °F 52.0 °F 40% 30.09 in 10.0 mi South 10.4 mph - N/A   Clear
6:55 PM 77.9 °F 52.5 °F 41% 30.09 in 10.0 mi South 11.5 mph - N/A   Clear
7:15 PM 76.5 °F 52.9 °F 44% 30.09 in 10.0 mi South 8.1 mph - N/A   Clear
7:35 PM 76.3 °F 54.1 °F 46% 30.09 in 10.0 mi South 4.6 mph - N/A   Clear
7:55 PM 75.4 °F 54.0 °F 47% 30.09 in 10.0 mi SSE 5.8 mph - N/A   Clear
8:15 PM 73.8 °F 54.0 °F 50% 30.09 in 10.0 mi SSE 5.8 mph - N/A   Clear
8:35 PM 71.8 °F 54.1 °F 54% 30.08 in 10.0 mi SSE 4.6 mph - N/A   Clear
8:55 PM 70.5 °F 54.5 °F 57% 30.07 in 10.0 mi SSE 4.6 mph - N/A   Clear
9:15 PM 69.6 °F 54.5 °F 59% 30.08 in 10.0 mi South 4.6 mph - N/A   Clear
9:35 PM 68.5 °F 54.3 °F 60% 30.08 in 10.0 mi SSE 4.6 mph - N/A   Clear
9:55 PM 67.3 °F 54.0 °F 62% 30.08 in 10.0 mi SSE 4.6 mph - N/A   Clear
10:15 PM 67.1 °F 54.3 °F 63% 30.09 in 10.0 mi SSE 3.5 mph - N/A   Clear
10:35 PM 66.4 °F 54.5 °F 66% 30.08 in 10.0 mi SSE 3.5 mph - N/A   Clear
10:55 PM 65.8 °F 54.5 °F 67% 30.07 in 10.0 mi SSE 3.5 mph - N/A   Clear
11:15 PM 66.4 °F 54.5 °F 66% 30.07 in 10.0 mi SSE 5.8 mph - N/A   Clear
11:35 PM 66.2 °F 53.1 °F 63% 30.08 in 10.0 mi South 4.6 mph - N/A   Clear
11:55 PM 66.0 °F 51.6 °F 60% 30.09 in 10.0 mi South 4.6 mph - N/A   Clear